Wind_Speed
16 15 14 13 11 11 11 11 11 10 10 9 8 8 8 7 6 5 5 5 5 4 5 5 5 4 4 4 4 3 4 4 5 5 5 5 4 4 4 4 4 4 4 4 4 5 5 5 4
16 15 16 14 13 11 11 10 11 11 10 9 8 8 7 7 6 6 5 5 5 5 5 4 4 4 3 3 3 3 3 3 4 4 4 5 4 4 4 4 5 4 4 4 4 4 5 4 3
17 17 16 15 16 13 12 11 11 11 11 10 8 8 7 7 7 6 5 5 5 5 5 5 5 4 3 3 2 2 2 2 3 3 3 4 4 4 4 4 4 4 4 3 4 4 5 5 4
18 16 16 16 16 15 14 12 11 11 10 9 9 8 8 8 7 6 6 5 5 6 6 6 6 4 4 4 3 2 2 1 2 2 3 4 4 4 4 3 3 3 4 3 4 4 5 5 4
17 17 18 17 16 15 15 14 11 11 10 10 9 9 9 8 7 7 6 6 5 6 6 6 6 5 4 4 3 2 2 1 2 2 3 3 3 4 4 4 4 4 4 4 4 5 5 5 4
18 18 19 18 16 15 15 14 13 11 10 10 9 9 9 9 8 8 7 7 6 6 6 7 7 6 5 5 4 4 2 1 2 2 3 3 3 3 3 4 4 4 4 4 5 5 5 4 4
17 19 18 17 16 16 14 14 13 12 11 10 9 9 9 9 9 8 8 8 7 7 7 7 7 7 6 6 5 4 4 3 2 3 3 3 3 3 3 3 3 4 4 4 5 5 5 4 4
17 18 18 17 16 16 15 14 13 12 11 10 9 9 10 9 9 9 9 9 8 8 8 8 7 7 6 5 5 5 5 4 3 3 4 3 3 3 3 3 3 3 3 4 4 4 4 4 4
16 17 17 17 17 17 16 15 14 13 12 11 10 11 11 10 10 10 9 9 8 8 9 9 8 8 7 6 5 5 5 6 5 4 3 3 3 3 2 2 2 2 3 4 4 4 4 3 4
16 17 17 17 18 18 17 16 16 15 13 12 12 11 11 11 10 9 9 9 8 9 10 9 9 9 8 8 7 6 6 6 6 5 4 3 3 3 2 2 2 2 3 3 4 2 3 3 4
15 15 16 17 17 17 17 17 16 16 13 12 13 12 11 11 10 10 9 8 8 9 9 9 9 9 9 8 8 8 7 7 7 6 5 4 4 3 2 2 2 2 3 3 3 2 3 3 3
13 14 15 16 17 18 18 18 18 16 15 14 14 13 12 11 11 10 10 10 10 10 10 10 10 10 10 9 9 8 8 8 7 6 6 5 5 5 4 4 3 3 2 3 3 3 3 3 3
13 15 15 16 17 18 18 18 18 17 16 16 15 13 12 12 12 11 11 11 11 11 11 10 11 11 10 9 8 8 8 8 7 7 6 6 6 5 5 5 4 3 3 3 3 3 3 3 3
13 14 16 17 18 18 18 17 16 17 17 16 15 14 13 13 13 13 12 11 11 11 11 11 11 11 10 9 9 8 7 7 7 7 7 6 6 6 5 4 4 3 3 4 3 3 3 3 3
12 13 15 16 17 17 17 17 16 17 16 16 15 15 14 14 14 14 13 12 11 11 12 11 11 11 10 10 9 8 7 6 7 7 6 6 5 5 5 4 3 3 3 2 2 3 2 2 2
12 12 13 14 15 15 16 17 17 17 16 16 15 15 15 15 14 14 14 13 11 11 11 11 11 10 9 10 9 8 7 6 6 6 6 6 5 4 4 4 3 3 2 2 2 2 1 1 1
10 10 11 12 13 14 15 15 16 16 16 16 15 15 15 15 14 14 13 13 12 11 11 11 11 10 9 9 9 8 7 6 5 5 5 5 4 4 3 3 3 3 3 2 2 1 1 1 1
9 9 8 9 10 11 12 13 13 15 15 15 14 14 14 14 14 14 14 14 13 13 12 11 10 10 9 9 9 8 7 6 5 5 5 5 4 4 3 3 2 2 2 3 2 2 1 1 1
7 5 6 6 6 7 8 10 11 12 13 14 14 14 14 14 13 14 14 14 14 13 12 11 10 10 9 9 9 9 8 7 6 6 6 6 5 4 3 3 3 3 3 3 2 2 2 2 1
6 5 5 3 2 3 5 7 9 10 12 12 12 12 12 13 13 13 14 13 13 13 12 11 11 10 9 9 9 9 8 7 7 5 6 6 7 6 4 4 5 5 5 4 3 3 3 3 3
6 4 3 2 3 2 3 6 7 9 9 10 10 11 11 12 12 12 13 13 12 12 12 12 12 11 10 9 10 10 9 8 7 7 7 7 6 6 6 5 5 5 5 5 5 4 4 4 4
6 4 3 2 1 1 1 4 5 5 7 8 9 10 10 11 11 11 12 12 12 12 11 12 12 12 11 10 10 10 9 9 8 8 7 6 7 7 7 7 7 5 5 6 5 4 4 4 5
6 5 4 4 3 2 3 5 4 4 6 7 8 9 9 9 9 10 10 10 11 11 11 11 12 12 11 11 10 10 9 9 9 9 8 7 7 7 7 7 7 6 6 6 5 5 5 6 6
8 8 6 6 6 5 4 6 4 3 4 5 7 7 7 8 8 8 9 9 9 10 10 10 11 11 11 11 10 10 10 10 10 10 9 8 7 7 7 7 7 7 7 7 7 7 7 7 8
10 11 9 8 8 6 6 6 4 3 2 3 6 6 6 6 6 6 7 8 7 8 9 10 10 11 11 11 11 10 10 10 10 10 10 9 8 8 8 8 8 8 8 8 9 9 9 9 10
10 12 12 11 8 6 7 7 5 3 2 3 4 6 6 6 6 6 6 7 6 7 8 9 10 10 11 11 10 10 10 10 10 10 10 10 10 10 10 10 10 10 10 10 10 10 10 11 11
11 12 13 12 11 10 8 8 7 4 3 4 5 5 5 5 5 6 6 6 6 6 7 8 9 9 10 10 10 10 10 11 11 11 11 12 12 11 11 11 11 11 11 12 11 11 11 12 11
13 12 13 14 12 11 10 9 7 5 5 6 7 7 6 6 6 7 7 7 6 7 7 8 9 9 10 10 10 10 11 11 11 12 12 13 12 12 12 13 12 12 13 13 13 13 12 12 12
16 16 15 15 15 14 13 11 8 7 7 6 6 7 7 8 8 8 8 8 7 8 8 9 10 10 10 10 11 11 11 12 12 12 13 13 13 13 13 14 14 14 15 15 15 14 14 14 14
19 18 18 17 16 16 15 14 11 11 10 8 7 9 9 10 10 9 9 9 9 9 9 10 11 11 11 11 12 12 13 13 13 13 13 13 13 14 14 15 16 16 16 16 16 15 15 15 16
Wind_Direction
84 80 76 78 82 82 85 81 74 71 67 70 69 67 64 66 66 65 68 62 60 61 65 66 61 65 78 87 100 111 122 130 147 150 147 143 145 146 150 151 143 148 152 146 146 148 146 151 153
81 78 72 73 75 72 74 74 71 69 65 64 63 61 57 59 59 57 64 60 55 56 59 61 61 62 78 90 104 117 131 141 156 162 167 161 156 153 145 147 148 149 150 143 140 147 148 149 142
77 75 71 68 67 65 68 68 68 65 63 62 62 59 56 56 60 61 62 60 57 60 62 61 62 65 83 96 110 132 142 157 174 180 185 175 167 168 162 157 161 155 151 144 149 155 156 157 144
74 70 68 65 59 61 61 62 64 64 61 61 62 59 56 57 63 67 64 66 62 62 60 62 67 68 82 92 95 109 133 160 172 180 174 171 180 179 174 165 164 161 160 158 161 161 152 157 154
71 68 63 59 55 57 58 59 62 62 61 60 62 58 55 58 65 71 67 65 67 66 64 65 68 71 74 83 81 85 94 144 176 186 181 175 176 178 175 174 171 169 175 177 175 169 162 162 166
68 62 57 54 53 56 58 58 58 59 59 59 58 58 58 64 63 65 68 70 71 68 65 63 62 62 71 76 83 78 81 123 181 190 176 176 173 175 179 184 187 188 189 188 185 177 173 173 170
67 62 55 51 52 53 54 57 60 58 54 55 55 53 54 60 62 65 70 72 68 64 64 62 56 61 67 71 69 66 62 63 118 160 157 164 175 192 197 184 183 185 192 192 193 195 187 182 185
66 60 56 53 54 55 54 52 56 58 54 51 52 53 53 56 63 65 71 70 68 65 65 62 57 62 66 68 65 60 56 58 90 135 154 153 163 182 192 181 181 204 206 198 199 196 189 192 190
64 59 56 54 54 53 54 51 52 55 56 55 53 54 56 57 63 65 69 68 67 64 64 63 61 61 63 67 67 63 62 68 91 111 129 134 148 160 170 178 203 218 217 211 211 201 199 197 191
64 62 57 52 51 50 52 50 49 50 51 52 54 56 60 62 66 68 72 71 70 67 64 62 62 61 63 66 66 65 64 69 80 91 96 104 120 139 158 175 204 212 212 207 203 189 193 193 186
66 63 58 54 52 51 53 53 52 53 51 55 59 59 62 64 65 69 74 75 74 70 65 63 63 63 62 64 68 69 70 71 77 85 86 84 95 113 138 147 133 153 191 195 184 190 181 187 183
74 71 64 57 55 52 53 54 53 54 55 60 59 59 62 65 67 71 76 78 75 70 67 67 65 63 64 67 73 74 73 76 79 81 79 81 92 99 111 116 113 110 132 156 171 181 162 160 178
75 73 69 61 58 55 54 53 51 52 57 60 59 59 62 65 67 69 74 77 75 70 69 72 73 69 69 71 76 75 75 74 78 83 79 83 92 94 104 110 110 107 110 126 133 130 153 156 158
74 71 69 63 60 59 53 51 49 51 56 57 58 58 62 64 64 66 70 71 72 70 69 71 72 72 70 71 72 72 68 69 71 77 79 87 98 99 102 103 99 93 108 120 103 120 140 161 168
76 66 63 60 57 55 52 51 49 49 53 53 53 55 61 64 64 64 65 66 70 71 70 71 68 68 67 67 68 66 68 68 68 72 77 85 92 96 100 92 89 92 95 114 114 130 159 174 182
79 70 67 66 60 55 49 46 46 49 53 53 55 56 60 63 63 63 62 62 65 67 68 68 66 64 63 62 63 58 58 61 68 73 75 81 87 86 88 84 76 71 67 91 135 147 138 159 208
90 76 71 70 62 55 50 46 45 49 52 52 53 55 58 61 61 61 60 60 61 62 63 62 61 60 57 57 54 50 48 57 63 63 74 73 77 88 81 67 64 55 53 68 91 51 309 312 298
91 79 79 71 58 52 52 49 46 49 52 52 52 53 55 59 60 59 59 59 59 58 58 59 56 52 48 50 48 45 48 60 58 63 69 68 68 76 75 48 30 40 49 45 52 27 12 356 339
107 94 93 78 63 51 47 45 45 47 51 52 52 53 54 55 58 56 55 55 55 54 54 55 52 48 46 46 44 41 48 53 52 56 56 51 50 54 58 40 16 12 23 25 31 42 35 22 354
139 129 114 127 122 68 45 47 48 45 46 47 48 51 52 51 52 53 53 52 51 51 54 54 48 46 45 45 45 45 48 47 48 50 53 42 39 41 42 24 16 8 6 10 25 18 3 347 346
159 147 151 181 154 98 44 39 37 37 41 42 44 45 47 47 47 49 51 51 50 51 52 50 46 43 42 45 48 46 42 39 41 45 44 38 34 33 29 19 16 18 17 12 10 7 354 334 324
177 181 190 194 189 144 347 1 19 33 35 38 37 38 40 39 41 42 45 46 46 49 49 44 41 41 44 45 45 44 40 38 37 32 29 25 24 25 24 23 19 14 11 2 354 345 335 325 318
196 210 223 225 228 241 307 332 5 20 32 39 31 27 33 33 34 36 41 44 42 42 43 41 38 38 40 40 37 33 38 37 34 28 25 27 24 20 18 15 13 8 357 350 342 330 321 317 312
219 223 228 233 235 249 282 303 308 343 23 30 22 16 23 26 27 27 32 35 35 34 34 34 35 35 36 35 31 29 29 27 26 22 20 18 13 9 5 359 354 354 351 344 335 323 314 307 302
227 231 224 226 225 239 250 266 261 296 346 5 4 1 17 21 21 18 19 23 22 23 23 22 25 27 28 27 25 23 21 19 16 14 13 8 1 355 349 345 342 340 337 329 322 314 307 301 299
232 236 230 226 221 230 239 248 236 257 290 314 329 340 355 359 6 2 5 6 6 9 11 12 14 15 15 17 16 16 14 10 6 4 1 359 353 346 342 337 335 333 332 326 319 312 304 298 296
229 235 235 232 230 237 238 238 232 244 256 284 295 310 330 337 342 345 345 352 349 348 352 357 0 0 0 1 3 3 1 359 357 356 352 347 345 342 337 335 333 331 327 322 317 311 306 300 298
228 232 233 235 244 234 241 247 254 249 261 268 278 292 310 315 318 324 323 325 329 329 334 341 346 347 347 350 350 350 351 350 348 346 345 342 340 338 336 332 331 327 322 318 314 311 306 300 297
225 227 233 239 243 245 249 251 256 259 259 255 262 271 289 302 310 314 317 318 314 317 321 325 331 331 333 337 338 337 337 338 337 337 338 337 334 333 332 328 327 323 319 316 313 309 303 299 296
225 228 232 237 241 244 253 251 249 254 259 257 259 268 280 293 299 302 306 305 306 310 311 312 318 321 321 326 327 326 326 327 328 327 330 330 328 326 325 323 321 319 317 315 311 308 306 302 296
Height
5892 5892 5892 5893 5893 5892 5892 5892 5891 5891 5891 5890 5890 5890 5890 5890 5891 5892 5889 5887 5886 5886 5885 5885 5884 5884 5884 5884 5884 5884 5884 5885 5885 5885 5885 5886 5886 5886 5887 5887 5888 5888 5889 5889 5890 5890 5891 5891 5891
5894 5894 5895 5895 5894 5893 5893 5893 5893 5893 5892 5891 5891 5891 5891 5891 5890 5889 5888 5887 5887 5887 5886 5886 5885 5885 5884 5884 5884 5885 5885 5885 5885 5885 5885 5886 5886 5887 5887 5887 5888 5889 5889 5890 5890 5890 5891 5891 5891
5896 5896 5898 5897 5895 5895 5895 5894 5894 5894 5893 5893 5893 5892 5892 5891 5891 5890 5889 5888 5887 5887 5887 5886 5885 5885 5885 5885 5885 5885 5885 5885 5885 5885 5885 5885 5886 5887 5887 5888 5888 5889 5889 5890 5890 5890 5891 5891 5892
5899 5899 5899 5898 5897 5897 5896 5896 5896 5895 5895 5894 5894 5893 5893 5892 5891 5890 5889 5889 5888 5888 5887 5887 5886 5886 5886 5885 5885 5885 5884 5884 5884 5884 5885 5885 5886 5887 5887 5888 5888 5889 5889 5890 5890 5890 5891 5892 5892
5900 5901 5900 5899 5899 5899 5898 5898 5897 5897 5896 5895 5895 5894 5894 5893 5892 5891 5890 5890 5889 5889 5888 5887 5887 5886 5886 5885 5885 5885 5884 5884 5883 5884 5884 5885 5886 5887 5887 5888 5888 5888 5889 5889 5890 5890 5891 5892 5892
5903 5903 5902 5901 5901 5901 5900 5900 5899 5898 5897 5896 5895 5895 5894 5894 5892 5892 5891 5890 5890 5889 5889 5888 5888 5887 5886 5886 5885 5885 5884 5882 5882 5882 5884 5885 5886 5886 5887 5887 5888 5888 5889 5889 5890 5890 5890 5891 5891
5906 5905 5904 5904 5903 5903 5902 5901 5900 5899 5898 5898 5897 5896 5895 5894 5893 5892 5891 5891 5891 5890 5890 5889 5889 5888 5887 5887 5886 5885 5883 5881 5880 5881 5883 5884 5885 5886 5886 5886 5887 5887 5888 5889 5889 5889 5890 5890 5891
5908 5908 5907 5906 5906 5905 5904 5903 5902 5901 5900 5899 5898 5897 5896 5895 5894 5893 5892 5892 5892 5892 5891 5890 5889 5889 5888 5887 5886 5885 5883 5881 5879 5880 5883 5884 5885 5886 5886 5886 5886 5887 5888 5888 5889 5889 5889 5890 5890
5910 5911 5910 5909 5908 5907 5906 5905 5904 5902 5902 5901 5899 5898 5898 5896 5895 5894 5894 5894 5893 5893 5892 5891 5890 5889 5889 5888 5887 5886 5885 5883 5882 5883 5884 5885 5885 5886 5886 5886 5886 5886 5887 5887 5888 5888 5888 5889 5890
5912 5913 5912 5911 5910 5909 5908 5907 5905 5904 5903 5902 5901 5900 5899 5898 5897 5896 5896 5895 5895 5894 5893 5892 5891 5890 5889 5889 5888 5887 5887 5886 5885 5885 5885 5885 5886 5886 5886 5886 5886 5886 5886 5886 5887 5887 5888 5889 5889
5914 5915 5914 5913 5912 5911 5910 5909 5907 5906 5905 5904 5903 5902 5901 5900 5899 5898 5897 5897 5896 5895 5895 5894 5893 5892 5891 5890 5889 5889 5888 5888 5887 5887 5886 5886 5886 5886 5886 5886 5886 5886 5886 5886 5886 5887 5887 5888 5888
5916 5916 5916 5915 5914 5913 5912 5911 5910 5909 5908 5906 5905 5904 5903 5902 5901 5900 5899 5898 5898 5897 5896 5895 5894 5893 5892 5892 5891 5890 5890 5889 5889 5888 5888 5887 5887 5887 5887 5887 5887 5886 5886 5886 5886 5886 5886 5887 5888
5918 5918 5917 5917 5916 5915 5914 5913 5913 5911 5910 5908 5907 5906 5905 5904 5902 5901 5900 5899 5899 5899 5898 5897 5896 5895 5894 5893 5893 5892 5892 5891 5890 5890 5889 5889 5888 5888 5888 5887 5887 5886 5886 5886 5886 5886 5886 5887 5887
5921 5920 5919 5919 5918 5917 5917 5916 5915 5913 5912 5911 5910 5909 5907 5906 5904 5903 5902 5901 5901 5900 5899 5898 5897 5897 5896 5895 5894 5893 5893 5892 5892 5891 5890 5890 5889 5889 5888 5888 5887 5887 5886 5886 5886 5886 5886 5887 5887
5922 5922 5921 5920 5920 5920 5920 5919 5918 5916 5915 5914 5912 5911 5910 5908 5907 5906 5904 5904 5903 5902 5901 5900 5899 5898 5897 5897 5896 5895 5894 5893 5893 5892 5891 5891 5890 5890 5889 5889 5888 5887 5887 5887 5887 5887 5887 5886 5886
5924 5924 5923 5923 5922 5922 5923 5921 5920 5918 5917 5916 5915 5914 5912 5911 5909 5908 5907 5906 5905 5904 5903 5902 5901 5900 5899 5898 5897 5896 5895 5894 5893 5893 5892 5891 5891 5890 5890 5890 5889 5888 5887 5887 5887 5887 5887 5886 5886
5925 5925 5924 5924 5924 5924 5924 5923 5922 5920 5919 5918 5917 5916 5914 5913 5912 5910 5909 5908 5906 5905 5904 5904 5903 5902 5901 5900 5898 5897 5896 5895 5894 5894 5893 5892 5891 5891 5891 5890 5889 5888 5887 5887 5887 5886 5886 5886 5886
5926 5926 5925 5925 5926 5925 5925 5925 5924 5923 5922 5921 5920 5919 5917 5916 5914 5913 5911 5910 5908 5907 5906 5905 5904 5903 5902 5900 5899 5898 5896 5896 5895 5894 5893 5893 5892 5891 5891 5890 5889 5888 5888 5887 5886 5886 5886 5886 5885
5926 5926 5926 5927 5927 5927 5926 5926 5926 5925 5924 5923 5922 5921 5920 5918 5917 5915 5913 5912 5910 5909 5908 5907 5906 5905 5903 5902 5900 5898 5896 5896 5895 5895 5894 5893 5892 5891 5891 5890 5889 5888 5887 5887 5886 5886 5885 5885 5884
5926 5926 5927 5927 5927 5927 5927 5927 5926 5926 5925 5925 5924 5923 5922 5920 5919 5917 5916 5914 5912 5911 5910 5909 5907 5906 5904 5903 5901 5900 5898 5897 5896 5895 5895 5894 5893 5892 5891 5890 5889 5888 5887 5886 5885 5885 5884 5884 5884
5926 5926 5927 5927 5928 5927 5927 5927 5926 5926 5926 5926 5925 5924 5923 5922 5920 5919 5918 5916 5914 5913 5912 5910 5909 5907 5906 5904 5903 5901 5900 5899 5897 5896 5895 5894 5893 5892 5891 5890 5889 5888 5887 5886 5885 5884 5884 5883 5883
5925 5926 5927 5927 5927 5927 5928 5927 5926 5926 5927 5926 5926 5925 5923 5922 5921 5920 5919 5917 5916 5915 5913 5912 5910 5908 5907 5905 5904 5903 5902 5900 5899 5898 5896 5895 5894 5893 5891 5890 5888 5887 5887 5886 5885 5884 5883 5882 5882
5925 5926 5927 5927 5927 5927 5927 5927 5927 5926 5927 5927 5926 5925 5924 5923 5922 5921 5920 5918 5917 5916 5915 5913 5911 5910 5908 5907 5905 5904 5902 5901 5900 5899 5897 5896 5894 5893 5891 5890 5889 5887 5886 5885 5884 5883 5882 5881 5880
5925 5925 5926 5926 5926 5927 5927 5926 5927 5926 5926 5926 5926 5925 5924 5923 5923 5921 5920 5919 5918 5917 5916 5914 5912 5911 5910 5908 5906 5904 5902 5901 5900 5899 5897 5896 5894 5893 5891 5890 5888 5886 5885 5883 5882 5881 5880 5879 5878
5923 5924 5925 5925 5925 5925 5925 5925 5926 5926 5925 5925 5924 5924 5924 5923 5923 5922 5921 5920 5919 5917 5916 5915 5913 5912 5910 5908 5907 5905 5903 5902 5900 5899 5897 5896 5894 5892 5890 5889 5887 5885 5883 5882 5880 5879 5878 5877 5876
5921 5922 5923 5923 5923 5923 5923 5923 5924 5923 5923 5923 5923 5923 5923 5923 5923 5922 5921 5920 5919 5918 5917 5915 5913 5912 5910 5909 5907 5905 5904 5902 5900 5898 5897 5895 5893 5891 5889 5887 5885 5884 5882 5880 5878 5877 5875 5874 5873
5919 5919 5920 5921 5921 5921 5921 5921 5921 5921 5921 5922 5922 5922 5921 5922 5922 5921 5920 5920 5919 5918 5916 5915 5913 5912 5910 5909 5907 5905 5903 5901 5899 5898 5896 5893 5891 5889 5887 5885 5883 5881 5880 5877 5876 5874 5872 5871 5870
5916 5917 5918 5918 5918 5918 5918 5918 5919 5919 5920 5920 5921 5921 5920 5920 5920 5920 5919 5918 5918 5917 5916 5914 5913 5911 5910 5908 5906 5904 5902 5900 5898 5896 5894 5892 5890 5887 5885 5883 5881 5879 5877 5875 5873 5871 5869 5868 5866
5913 5914 5914 5915 5915 5916 5915 5918 5917 5917 5918 5918 5919 5919 5919 5918 5918 5918 5918 5917 5916 5916 5914 5913 5911 5910 5908 5907 5905 5903 5901 5899 5897 5895 5892 5890 5887 5885 5883 5880 5878 5876 5874 5872 5869 5868 5866 5864 5863
5908 5909 5911 5912 5912 5913 5913 5916 5914 5914 5915 5916 5917 5917 5917 5917 5916 5916 5916 5915 5914 5913 5912 5911 5910 5908 5907 5905 5903 5901 5899 5897 5895 5892 5890 5887 5885 5883 5880 5878 5875 5873 5870 5868 5866 5864 5862 5860 5859